FW5729 Weather Reports


Display with metric or nautical units.
time (UTC)temp
F
wind
direction
speed
MPH
gust
MPH
rain 1hr
in
rain 24hr
in
rain mn
in
humidity
%
barometer
mb
20260503231534 78 201 1.0 5.0 0.00 0.00 0.00 35 1016.5
20260503230041 78 226 0.0 4.0 0.00 0.00 0.00 35 1016.4
20260503224540 79 222 1.0 6.0 0.00 0.00 0.00 34 1016.3
20260503223035 82 0 1.0 8.0 0.00 0.00 0.00 33 1016.6
20260503221540 82 183 2.0 6.0 0.00 0.00 0.00 31 1017.0
20260503220041 82 221 2.0 6.0 0.00 0.00 0.00 32 1017.0
20260503214535 82 210 0.0 6.0 0.00 0.00 0.00 33 1017.1
20260503213046 81 216 1.0 4.0 0.00 0.00 0.00 33 1017.4
20260503211534 82 182 2.0 7.0 0.00 0.00 0.00 32 1017.7
20260503210053 82 200 2.0 7.0 0.00 0.00 0.00 33 1018.1
20260503204549 81 239 1.0 7.0 0.00 0.00 0.00 31 1018.5
20260503203033 81 103 1.0 5.0 0.00 0.00 0.00 34 1018.6
20260503201537 80 261 1.0 6.0 0.00 0.00 0.00 33 1018.9
20260503200046 81 67 1.0 6.0 0.00 0.00 0.00 30 1019.1
20260503194532 81 267 3.0 8.0 0.00 0.00 0.00 31 1019.4
20260503193047 81 154 1.0 4.0 0.00 0.00 0.00 31 1019.6
20260503191538 80 53 2.0 6.0 0.00 0.00 0.00 31 1019.6
20260503190037 80 230 3.0 9.0 0.00 0.00 0.00 31 1020.0
20260503184545 80 183 2.0 8.0 0.00 0.00 0.00 32 1020.2
20260503183054 80 220 1.0 7.0 0.00 0.00 0.00 34 1020.4
20260503181535 80 295 1.0 6.0 0.00 0.00 0.00 32 1020.6
20260503180041 79 216 2.0 8.0 0.00 0.00 0.00 32 1020.9
20260503174535 79 200 2.0 6.0 0.00 0.00 0.00 34 1021.3
20260503173107 78 217 2.0 9.0 0.00 0.00 0.00 35 1021.4
20260503171535 78 206 1.0 5.0 0.00 0.00 0.00 36 1021.5
20260503081531 53 0 0.0 0.0 0.00 0.00 0.00 89 1020.8
20260503071534 55 0 0.0 0.0 0.00 0.00 0.00 91 1021.3
20260503054537 57 0 0.0 0.0 0.00 0.00 0.00 81 1021.4
20260503053037 58 0 0.0 0.0 0.00 0.00 0.00 79 1021.4
20260503051532 60 0 0.0 0.0 0.00 0.00 0.00 77 1021.5
20260503050033 62 0 0.0 0.0 0.00 0.00 0.00 61 1021.4
20260503044533 63 0 0.0 0.0 0.00 0.00 0.00 58 1021.3
20260503043035 63 0 0.0 2.0 0.00 0.00 0.00 57 1021.2
20260503041529 63 191 2.0 3.0 0.00 0.00 0.00 57 1021.1
20260503040044 63 177 1.0 3.0 0.00 0.00 0.00 57 1020.8
20260503034544 63 0 0.0 0.0 0.00 0.00 0.00 58 1020.8
20260503033039 63 0 0.0 1.0 0.00 0.00 0.00 59 1020.8
20260503031539 64 171 1.0 1.0 0.00 0.00 0.00 59 1020.7
20260503030033 64 165 0.0 1.0 0.00 0.00 0.00 59 1020.4
20260503024533 64 158 0.0 1.0 0.00 0.00 0.00 60 1020.4
20260503023032 65 0 0.0 1.0 0.00 0.00 0.00 59 1020.3
20260503021540 66 0 0.0 1.0 0.00 0.00 0.00 55 1019.7
20260503020031 66 0 0.0 0.0 0.00 0.00 0.00 51 1019.6
20260503014531 67 0 0.0 0.0 0.00 0.00 0.00 48 1019.5
20260503013033 68 66 0.0 2.0 0.00 0.00 0.00 45 1019.4
20260503011534 69 0 0.0 2.0 0.00 0.00 0.00 46 1019.4
20260503010032 69 66 1.0 2.0 0.00 0.00 0.00 47 1019.3
20260503004538 70 65 2.0 4.0 0.00 0.00 0.00 45 1019.3
20260503003029 70 58 1.0 3.0 0.00 0.00 0.00 47 1019.3
20260503001533 71 57 1.0 3.0 0.00 0.00 0.00 45 1019.3
20260503000034 72 61 4.0 6.0 0.00 0.00 0.00 43 1019.2
20260502234533 73 56 2.0 5.0 0.00 0.00 0.00 41 1019.1
20260502233031 73 50 2.0 6.0 0.00 0.00 0.00 40 1019.2